Regional Weather Roundup
Issued by NWS Wakefield, VA

Home | Current Version | Previous Version | Text Only | Print | Product List | Glossary On
Versions: 1 2 3 4 5 6 7 8 9 10 11 12 13 14 15 16 17 18 19 20 21 22 23 24 25 26 27 28 29 30 31 32 33 34 35 36 37 38 39 40 41 42 43 44 45 46 47 48 49 50
000
ASUS41 KAKQ 270015
RWRAKQ

REGIONAL WEATHER ROUNDUP
NATIONAL WEATHER SERVICE WAKEFIELD VA
800 PM EDT FRI MAY 26 2017

Note: "fair" indicates few or no clouds below 12,000 feet with no
significant weather and/or obstructions to visibility. * = Denotes
station may not report precipitation (e.g., rain,snow,etc.),
thunder or fog.

VAZ042-051-052>054-056-270100-
NORTHERN VIRGINIA

CITY           SKY/WX    TMP DP  RH WIND       PRES   REMARKS
WASH NATIONAL  PTCLDY    73  55  53 N9        29.86R
DULLES         MOCLDY    71  53  52 N6        29.85R
FORT BELVOIR   MOCLDY    74  54  49 NW6       29.85R
QUANTICO       PTCLDY    75  55  49 N5        29.86R
FREDERICKSBRG* CLEAR     75  55  50 NW5       29.85R
STAFFORD*      PTCLDY    70  57  63 W3        29.90R
WARRENTON      CLEAR     73  52  47 W3        29.85R
CULPEPER*      CLEAR     74  55  50 CALM      29.87R
MANASSAS*      CLEAR     72  55  55 CALM      29.86R
LEESBURG*      CLEAR     70  59  68 NW9       29.87R
WINCHESTER     CLOUDY    66  54  63 NW6       29.88R
FRONT ROYAL*   CLOUDY    70  57  64 W3        29.87R
LURAY*         PTCLDY    72  52  49 SW5       29.89R
$$

VAZ048-049-060>072-079>083-270100-
CENTRAL AND SOUTH CENTRAL VIRGINIA

CITY           SKY/WX    TMP DP  RH WIND       PRES   REMARKS
RICHMOND       PTCLDY    77  54  44 W8        29.86R
CHESTERFIELD*  NOT AVBL
PETERSBURG*    CLEAR     70  59  67 CALM      29.87R
HANOVER        CLEAR     75  51  43 W7        29.87R
TAPPAHANNOCK*  PTCLDY    73  52  46 CALM      29.86R
QUINTON*       FAIR      73  60  65 W7        29.85R
CHARLOTTSVILLE PTCLDY    75  52  44 CALM      29.87R
GORDONSVILLE*  CLEAR     72  56  57 CALM      29.86R
ORANGE*        CLEAR     72  52  49 CALM      29.87R
LOUISA*        CLEAR     73  63  68 CALM      29.86R
BUMPASS*       FAIR      69  58  68 CALM      29.86R
FARMVILLE*     CLEAR     72  51  47 CALM      29.86R
CREWE*         FAIR      75  46  36 W3        29.87R
FORT PICKETT*  FAIR      72  51  47 W8        29.88R
CHASE CITY*    FAIR      72  58  61 CALM      29.89R
CLARKSVILLE*   FAIR      72  61  68 CALM      29.89R
SOUTH HILL*    CLEAR     72  61  68 SW3       29.94R
LAWRENCEVILLE* FAIR      71  59  65 CALM      29.88R
EMPORIA*       CLEAR     72  55  56 SW3       29.89R
$$

VAZ088>098-270100-
SOUTHEAST VIRGINIA

CITY           SKY/WX    TMP DP  RH WIND       PRES   REMARKS
NORFOLK        CLEAR     78  55  44 W5        29.86R
VIRGINIA BEACH PTCLDY    75  53  46 W8        29.85R
NORFOLK NAVAL  PTCLDY    77  54  44 W7        29.87R
WEST POINT*    PTCLDY    74  58  56 CALM      29.86R
SALUDA*        FAIR      74  57  55 W3        29.85R
NEWPORT NEWS   NOT AVBL
LANGLEY AFB    CLEAR     74  58  57 W8        29.85R
FORT EUSTIS    CLEAR     77  57  49 W6        29.84R
WILLIAMSBURG*  PTCLDY    79  61  53 CALM      29.87R
HR EXEC AP*    FAIR      70  57  64 W3        29.85R
FRANKLIN*      CLEAR     73  58  58 CALM      29.88R
US460-WAKEFLD  CLEAR     72  61  68 CALM      29.86R
$$

VAZ020-022-025-037-045-270100-
WEST CENTRAL AND SOUTHWEST VIRGINIA

CITY           SKY/WX    TMP DP  RH WIND       PRES   REMARKS
STAUNTON*      PTCLDY    70  52  52 NW5       29.92R
WAYNESBORO*    CLEAR     71  52  51 NW3       29.91R
HOT SPRINGS VA PTCLDY    61  43  51 W14G21    30.01R
LYNCHBURG      CLEAR     73  53  49 CALM      29.92R
DANVILLE       CLEAR     74  61  63 CALM      29.90R
SOUTH BOSTON*  FAIR      76  56  49 CALM      29.89R
MARTINSVILLE   CLEAR     72  56  58 CALM      29.93R
ROANOKE        CLEAR     74  52  46 NW7       29.94R
BLACKSBURG     CLEAR     70  52  53 NW6       30.00R
DUBLIN*        CLEAR     72  46  40 NW7       29.99R
MARION*        CLEAR     67  52  58 CALM      30.02S
HILLSVILLE*    CLEAR     68  47  47 CALM      30.00R
RICHLANDS*     FAIR      67  54  61 SW6       30.01S
WISE*          CLEAR     68  54  60 CALM      30.02S
ABINGDON*      CLEAR     71  55  56 W5        30.01R
$$

MDZ021>025-VAZ099-100-270100-
SOUTHERN MARYLAND AND THE DELMARVA PENINSULA

CITY           SKY/WX    TMP DP  RH WIND       PRES   REMARKS
PATUXENT RIVER MOCLDY    72  59  63 W8        29.84R
BAY BRIDGE APT MOCLDY    70  55  60 NW13      29.84R
LEONARDTOWN    CLOUDY    70  57  64 W3        29.86R
DOVER          CLOUDY    71  60  69 W12       29.79R
GEORGETOWN     CLOUDY    73  56  54 VRB7      29.82R
EASTON         MOCLDY    72  55  56 NW7       29.87R
CAMBRIDGE      CLOUDY    72  55  56 NW10G17   29.84R
SALISBURY      MOCLDY    72  56  57 W10       29.82R
OCEAN CITY     PTCLDY    71  55  56 W7        29.82R
WALLOPS ISLAND PTCLDY    72  57  59 W7        29.83R
ACCOMACK*      MOCLDY    72   5   7 CALM      29.85R
$$

NCZ012>017-030>032-270100-
NORTH CENTRAL AND EASTERN NORTH CAROLINA

CITY           SKY/WX    TMP DP  RH WIND       PRES   REMARKS
ROANOKE RAPIDS FAIR      73  57  56 W3        29.89R
RALEIGH        PTCLDY    74  57  55 W5        29.91R
ELIZABETH CITY CLEAR     72  59  63 SW6       29.88R
AHOSKIE*       NOT AVBL
EDENTON*       CLEAR     78  60  52 CALM      29.89R
CURRITUCK*     CLEAR     75  57  52 SW5       29.89R
KILL DEVIL HLS CLEAR     74  59  59 CALM      29.87R
MANTEO         CLEAR     74  60  61 NW3       29.89R
CAPE HATTERAS  CLEAR     76  64  66 SW8       29.90R
TARBORO*       NOT AVBL
GOLDSBORO      CLEAR     78  56  46 W5        29.89R
WASHINGTON     CLEAR     75  57  53 W5        29.90R
GREENVILLE     CLEAR     77  57  50 W5        29.93R
NEW BERN       CLEAR     77  57  50 NW5       29.91R
WILMINGTON     CLEAR     76  63  64 SW8       29.92R
$$

VAZ048-270100-
ELSEWHERE

CITY           SKY/WX    TMP DP  RH WIND       PRES   REMARKS
HARRISBURG PA  MOCLDY    67  52  58 NW16G25   29.82R
BALTIMORE      PTCLDY    69  55  60 W14       29.83R
ANNAPOLIS      CLOUDY    73  55  53 W9        29.84R
ANDREWS AFB    PTCLDY    71  53  52 NW7       29.85R
PHILADELPHIA   CLOUDY    72  52  49 W15       29.78R
HENDERSON NC   CLEAR     71  57  60 CALM      29.90R
GREENSBORO     PTCLDY    75  57  53 SW8       29.91R
ROCKY MOUNT    CLEAR     73  61  65 S3        29.90R
$$

VAZ100-270100-
MARINE

STATION/POSITION TIME  TEMP    WIND        PRES    WAVE   SWELL
                       AIR SEA DIR/SP/G            HT/PER HT/PER
                 (UTC) (F)     (DEG/KT/KT) (MB)    (FT/S) (FT/S)
CAPE MAY NJ      2348   67 65  290/ 11/ 14 1008.6R
LEWES DE         2348   71 64  300/ 14/ 17 1009.0R
15NM E FENWICK I 2350   65 58  270/  8/  8 1009.5R   4/ 8   3/ 8
WACHAPREAGUE VA  2348   73 70  260/  2/  3 1010.2R
THOMAS POINT MD  0000   72 65  310/ 18/ 20   N/A
GOOSES REEF MD   2350   71     320/ 10/ 10 1011.1R
COVE POINT MD    2348   73     320/  5/  8 1011.2R
SOLOMONS ISLAND  2348   72 67  260/  4/  7   N/A
BISHOPS HEAD MD  2348   73 74  310/  8/ 11 1010.9R
PINEY POINT MD   2348          330/  7/  8   N/A
POTOMAC MD       2350   72     320/  6/  6 1009.6R
CAMBRIDGE MD     2336   72 69                N/A
LEWISETTA VA     2348   75 69  320/  7/  8 1010.5R
RAPPAHANNOCK LGT 2348          300/  9/  9 1011.1R
STINGRAY PT      2350   73     310/  6/  6 1010.9R
YORK RVR RNG VA  2348   73     270/ 11/ 11 1010.1R
YORKTOWN VA      2348   76 69  240/  5/  7 1010.5R
JAMESTOWN VA     2350   76     250/  6/  6   N/A
DOMINION TERM VA 2348   74     280/  5/  7 1011.1R
KIPTOPEKE VA     2348      69  280/  9/ 12   N/A
CHES BAY BRIDGE  2348   74 67  280/ 10/ 12 1010.8R
CAPE HENRY VA    2348   76     260/  8/ 12   N/A
WILLOUBY STN VA  2348   75     270/  9/  9 1010.8R
S CRANEY ISL VA  2348   77     260/  6/  9 1010.8R
CAPE HENRY BUOY  2342      63                N/A     2/ 7
1ST LANDING BUOY 2350   73                 1010.9R
CAPE CHARLES BUO 2351      66                N/A     2/ 8
64NM E OF VA BCH 2350   65 63  220/  6/  8 1011.4R   3/ 8   3/ 8
DUCK PIER NC     2348   76 62  260/  9/ 11 1011.3R
44100 DUCK FRF   2335      65                N/A     2/ 8
44056 DUCK FRF   2330      64                N/A     1/ 8
OREGON INLET NC  2348          280/  7/ 10 1011.8R
HATTERAS NC      2348   76 73  220/  6/  8 1012.2R
DIAMOND SHLS NC  2350   76 80  250/ 17/ 21 1012.2R   6/ 7
CAPE LOOKOUT NC  2300   75     230/ 13/ 16 1012.0R
$$



USA.gov is the U.S. government's official web portal to all federal, state and local government web resources and services.